Regional Weather Roundup
Issued by NWS

Home | Current Version | Previous Version | Text Only | Print | Product List | Glossary On
Versions: 1 2 3 4 5 6 7 8 9 10 11 12 13 14 15 16 17 18 19 20 21 22 23 24 25 26 27 28 29 30 31 32 33 34 35 36 37 38 39 40 41 42 43 44 45 46 47 48 49 50
000
ASUS44 KEWX 080803
RWRTX
SOUTH TEXAS REGIONAL WEATHER ROUNDUP
NATIONAL WEATHER SERVICE AUSTIN/SAN ANTONIO TX
200 AM CST MON FEB 08 2016

NOTE: "FAIR" INDICATED FEW OR NO CLOUDS BELOW 12,000 FEET WITH NO
SIGNIFICANT WEATHER AND/OR OBSTRUCTIONS TO VISIBILITY.

* - THESE STATIONS ARE NOT NWS OR FAA STATIONS...AND ARE NOT SUBJECT
    TO NWS AND FAA QUALITY CONTROL.

TXZ171-172-183>190-080900-
TEXAS HILL COUNTRY AND EDWARDS PLATEAU

CITY           SKY/WX    TMP DP  RH WIND       PRES   REMARKS
JUNCTION       CLOUDY    46  25  43 N7        30.29S WCI  42
*LLANO         CLOUDY    50  28  43 N9        30.30S WCI  46
BURNET         CLOUDY    50  27  40 N15G25    30.27R WCI  45
*HORSESHOE BAY CLOUDY    51  32  48 N6        30.26R
*KERRVILLE     CLOUDY    45  28  51 NW9       30.25S WCI  40
*FREDERICKSBRG CLOUDY    46  26  44 N10       30.25S WCI  41
*ROCKSPRINGS   CLOUDY    46  27  46 NE12      30.28S WCI  41
*BOERNE STAGE  CLEAR     50  27  40 N7        30.24R WCI  47
*CASTROVILLE   CLEAR     45  28  51 CALM      30.23S
HONDO          CLOUDY    52  25  35 N15       30.24R
*UVALDE        CLOUDY    51  28  40 N10       30.23R
DEL RIO        CLOUDY    54  23  30 N12       30.23R
LAUGHLIN AFB   NOT AVBL
CARRIZO SPRGS  PTCLDY    43  30  61 N5        30.20R WCI  40
*EAGLE PASS    CLOUDY    50  25  37 N9        30.22R WCI  46
$$

TXZ173-191>194-202-209-217>225-228-080900-
CENTRAL AND SOUTH CENTRAL TEXAS

CITY           SKY/WX    TMP DP  RH WIND       PRES   REMARKS
GEORGETOWN     CLEAR     50  30  46 N15       30.23R WCI  45
AUSTIN/BERGSTM CLEAR     46  35  65 N14       30.21R WCI  40
AUSTIN/MABRY   CLEAR     49  33  54 N7        30.23R WCI  46
*AUSTIN/EXEC   CLEAR     48  36  61 N21G28    30.22R WCI  41
*LAGO VISTA    CLEAR     51  32  47 N14G24    30.21R
SAN MARCOS     CLEAR     43  30  61 NW12      30.21R WCI  37
NEW BRAUNFELS  CLEAR     47  32  56 NW13      30.19R WCI  41
RANDOLPH AFB   NOT AVBL
PT SAN ANTONIO NOT AVBL
SAN ANTONIO    CLEAR     48  30  49 N10       30.21S WCI  43
STINSON FIELD  CLEAR     42  34  73 NW3       30.20R
*PLEASANTON    CLEAR     45  38  76 NW14      30.22R WCI  38
*LA GRANGE     CLEAR     42  37  84 CALM      30.19R
*GIDDINGS      CLEAR     40  34  79 CALM      30.23S
*GONZALES      CLEAR     45  39  81 CALM      30.19R
$$

TXZ163>164-176>182-195>201-210>213-226-227-235-080900-
SOUTHEAST TEXAS

CITY           SKY/WX    TMP DP  RH WIND       PRES   REMARKS
COLLEGE STN    CLEAR     45  35  68 NW5       30.22R WCI  43
*BRYAN         CLEAR     42  34  75 N5        30.23S WCI  39
*CALDWELL      CLEAR     43  34  70 NW7       30.26R WCI  39
*CROCKETT      CLEAR     36  32  87 CALM      30.23S
*BRENHAM       CLEAR     47  37  69 N5        30.21R WCI  45
HUNTSVILLE     CLEAR     40  36  86 CALM      30.21R
CONROE         CLEAR     35  33  92 CALM      30.20R
HOUSTON BUSH   PTCLDY    47  39  74 CALM      30.19S
HOUSTON HOBBY  PTCLDY    45  40  82 CALM      30.18S
*HOUSTON SW AP CLEAR     41  39  93 CALM      30.19S
PEARLAND       CLEAR     44  39  82 CALM      30.19S
HOUSTON HOOKS  CLEAR     46  40  79 NW5       30.19S WCI  44
ELLINGTON FLD  CLEAR     48  41  76 CALM      30.20S
SUGAR LAND     CLEAR     43  39  86 NW3       30.18S
*HOUSTON EXEC  CLEAR     45  39  81 CALM      30.20S
*CLEVELAND MUN CLEAR     39  39 100 N3        30.20R
*WHARTON       CLEAR     40  37  89 N3        30.20R
*COLUMBUS      FAIR      40  38  93 CALM      30.19S
*EAGLE LAKE    SUNNY     40  38  91 CALM      30.19S
$$

TXZ214>216-236>238-080900-
THE UPPER TEXAS COAST

CITY           SKY/WX    TMP DP  RH WIND       PRES   REMARKS
*ORANGE        PTCLDY    42  40  91 W3        30.18S
PORT ARTHUR    PTCLDY    46  45  96 W7        30.17S WCI  42
GALVESTON      CLEAR     51  49  92 W5        30.18S
ANGLETON       CLEAR     42  40  92 CALM      30.18S
*BAY CITY      CLEAR     43  43 100 N3        30.18R
PALACIOS       CLEAR     45  45 100 NW5       30.17S FOG     WCI  43
$$

TXZ229>234-239>247-080900-
TEXAS COASTAL BEND AND RIO GRANDE PLAINS

CITY           SKY/WX    TMP DP  RH WIND       PRES   REMARKS
VICTORIA       CLEAR     43  42  97 W5        30.18R WCI  40
*BEEVILLE      CLEAR     49  46  87 SW3       30.16S
ROCKPORT       PTCLDY    52  48  86 SW3       30.16S
*PORT ARANSAS  CLEAR     57  53  87 SW6       30.16S
*PORT LAVACA   CLEAR     46  45  98 W5        30.17S WCI  44
*INGLESIDE     PTCLDY    51  49  92 SW6       30.16S
CORPUS CHRISTI MOCLDY    48  45  89 S3        30.16S
CORPUS NAS     PTCLDY    53  53 100 SW3       30.16S
*ROBSTOWN      PTCLDY    48  44  84 S5        30.17S WCI  46
ALICE          PTCLDY    48  43  82 W3        30.16S
KINGSVILLE NAS MOCLDY    44  42  93 CALM      30.17S
COTULLA        PTCLDY    48  33  56 CALM      30.19R
*FAITH RANCH   CLEAR     50  25  37 N7        30.19R WCI  47
LAREDO         PTCLDY    53  35  50 E3        30.17S
$$

TXZ248>255-080900-
DEEP SOUTH TEXAS

CITY           SKY/WX    TMP DP  RH WIND       PRES   REMARKS
BROWNSVILLE    CLOUDY    54  51  90 NE5       30.16F
PORT ISABEL    CLOUDY    56  54  93 E5        30.15F
*SOUTH PADRE     N/A     63  59  88 NE3       30.16F
HARLINGEN      CLOUDY    52  46  80 E5        30.15F
*HEBBRONVILLE  NOT AVBL
MCALLEN        MOCLDY    57  47  69 E3        30.16S
*WESLACO       CLOUDY    53  45  74 CALM      30.16S
FALFURRIAS     PTCLDY    49  42  78 CALM      30.16F
EDINBURG       CLOUDY    52  43  70 CALM      30.17S
*ZAPATA        CLOUDY    50  35  55 CALM      30.15S
$$

TXZ213>215-236>238-242>244-246-247-251-254-255-080900-
CMAN STATIONS

STATION/POSITION TIME  TEMP    WIND        PRES    WAVE
                       AIR SEA DIR/SP/G            HT/PER
                 (UTC) (F)     (DEG/KT/KT) (MB)    (FT/S)
SABINE PASS      0700   51 56  280/  4/  7 1022.8
SEA RIM ST PARK  0700   51     290/  6/  7 1022.1
NORTH JETTY/GLS  0700   56 57  290/  5/  6   N/A
EAGLE POINT      0700   51 52  280/  3/  4 1021.9
MORGANS POINT    0700   51 53  280/  5/  6 1021.9
MISSION/ARANSAS  0700   57                 1022.0
PORT O`CONNOR    0700          210/  5/  6   N/A
PORT ARANSAS     0700   60 60  190/  9/ 10 1021.9
MALAQUITE BEACH  0700   60 60  180/  8/  9 1021.2
BAFFIN BAY       0700   59 59  180/  6/  7 1021.2
PORT ISABEL      0700   60 59   CALM  /  2 1021.3
$$

GMZ080-GMZ150>470-080900-
OFFSHORE BUOY REPORTS

STATION/POSITION TIME  TEMP    WIND        PRES    WAVE
                       AIR SEA DIR/SP/G            HT/PER
                 (UTC) (F)     (DEG/KT/KT) (MB)    (FT/S)
20 E GALVESTON   0650   59 59  260/  8/ 10 1021.7    1/ 4
90 E PT ARANSAS  0650   65 70  230/ 10/ 16 1021.3    2/ 7
35 NE PT MANSFLD 0650   65 69  190/ 10/ 12 1021.6    2/ 4
200 E PT ISABEL  0650                        N/A     2/ 6
$$



USA.gov is the U.S. government's official web portal to all federal, state and local government web resources and services.